This demonstration page uses our WeatherBlox Daily Observations layout. Learn more.

39.29038, -76.61219

Hourly Observations for May 22, 2019

Temp ( °F °C ) Dew Point ( °F °C ) Humidity (%) Winds ( mph kmh ) Pressure ( in mb ) Visibility ( mi km ) Precip ( " mm )
12:54 am 00:54 undefined 64 17.8 42 5.6 45 45 undefined N/A 30.15 1021 N/A 0 0
1:54 am 01:54 undefined 63 17.2 40 4.4 43 43 undefined N/A 30.17 1022 N/A 0 0
2:54 am 02:54 undefined 62 16.7 39 3.9 43 43 undefined N/A 30.19 1023 N/A 0 0
3:54 am 03:54 undefined 60 15.6 39 3.9 46 46 undefined N/A 30.2 1023 N/A 0 0
4:54 am 04:54 undefined 60 15.6 39 3.9 46 46 undefined N/A 30.2 1023 N/A 0 0
5:54 am 05:54 undefined 59 15 39 3.9 48 48 undefined N/A 30.22 1024 N/A 0 0
6:54 am 06:54 undefined 61 16.1 39 3.9 44 44 undefined N/A 30.25 1025 N/A 0 0
7:54 am 07:54 undefined 63 17.2 39 3.9 41 41 undefined N/A 30.27 1025 N/A 0 0
8:54 am 08:54 undefined 66 18.9 37 2.8 34 34 undefined N/A 30.28 1025 N/A 0 0
9:54 am 09:54 undefined 66 18.9 36 2.2 33 33 undefined N/A 30.29 1026 N/A 0 0
10:54 am 10:54 undefined 68 20 35 1.7 30 30 undefined N/A 30.28 1025 N/A 0 0
11:54 am 11:54 undefined 69 20.6 34 1.1 27 27 undefined N/A 30.28 1025 N/A 0 0
12:54 pm 12:54 undefined 70 21.1 39 3.9 32 32 undefined N/A 30.29 1026 N/A 0 0
1:54 pm 13:54 undefined 70 21.1 39 3.9 32 32 undefined N/A 30.28 1025 N/A 0 0
2:54 pm 14:54 undefined 70 21.1 37 2.8 30 30 undefined N/A 30.26 1025 N/A 0 0
3:54 pm 15:54 undefined 71 21.7 40 4.4 32 32 undefined N/A 30.26 1025 N/A 0 0
4:54 pm 16:54 undefined 72 22.2 44 6.7 37 37 undefined N/A 30.24 1024 N/A 0 0
5:54 pm 17:54 undefined 71 21.7 42 5.6 35 35 undefined N/A 30.23 1024 N/A 0 0
6:54 pm 18:54 undefined 70 21.1 41 5 35 35 undefined N/A 30.22 1023 N/A 0 0
7:54 pm 19:54 undefined 70 21.1 40 4.4 34 34 undefined N/A 30.23 1024 N/A 0 0
8:54 pm 20:54 undefined 69 20.6 44 6.7 41 41 undefined N/A 30.24 1024 N/A 0 0
9:54 pm 21:54 undefined 68 20 45 7.2 44 44 undefined N/A 30.25 1025 N/A 0 0
10:54 pm 22:54 undefined 66 18.9 49 9.4 54 54 undefined N/A 30.26 1025 N/A 0 0
11:54 pm 23:54 undefined 65 18.3 49 9.4 56 56 undefined N/A 30.25 1024 N/A 0 0

Powered by AerisWeather